Flag for United Kingdom Weather past 2 weeks in Glasgow, Scotland, United Kingdom

Now
61 °F

Passing clouds.


Feels Like: 61 °F
Forecast: 55 / 78 °F
Wind: 10 mph from East

Location: Glasgow Airport

Current Time: Jul 23, 2014 at 4:23:20 AM

Latest Report: Jul 23, 2014 at 3:50 AM


Visibility: N/A

Pressure: 30.27 "Hg

Humidity: 94%

Dew point: 59 °F

Location of GlasgowLocation

Historic Weather in Glasgow — Graph

°F

Glasgow temperature yesterday

Maximum temperature yesterday: 81 °F (at 4:50 PM)
Minimum temperature yesterday: 57 °F (at 12:20 AM)
Average temperature yesterday: 66 °F

Past Weeks' High & Low Weather Summary

 TemperatureHumidityPressure
High81 °F (Jul 22, 4:50 PM)100% (Jul 8, 3:50 AM)30.27 "Hg (Jul 8, 3:50 AM)
Low46 °F (Jul 10, 4:50 AM)44% (Jul 10, 3:20 PM)29.65 "Hg (Jul 14, 4:50 PM)
Average61 °F79%29.98 "Hg
* Reported Jul 8 3:20 AM — Jul 23 3:20 AM, Glasgow, Weather by CustomWeather, © 2014

Note: Actual official high and low records may vary slightly from our data, if they occured in-between our weather recording intervals... More about our weather records

Advertising

Glasgow weather history for previous 24 hours

 ConditionsComfort  
Time TempWeatherWind HumidityBarometerVisibility
3:20 AM
Jul 23
63 °FPassing clouds.8 mph88%30.27 "HgN/A
2:50 AM63 °FClear.8 mph88%30.27 "Hg10 mi
2:20 AM64 °FPassing clouds.9 mph83%30.27 "HgN/A
1:50 AM64 °FPassing clouds.8 mph83%30.27 "HgN/A
12:50 AM64 °FClear.7 mph83%30.27 "Hg10 mi
5:50 PM
Jul 22
81 °FSunny.3 mph48%30.21 "Hg10 mi
5:20 PM81 °FSunny.5 mph48%30.24 "Hg10 mi
4:50 PM81 °FPassing clouds.5 mph45%30.24 "HgN/A
4:20 PM79 °FSunny.2 mph48%30.24 "Hg10 mi
3:50 PM77 °FPassing clouds.3 mph51%30.24 "HgN/A
3:20 PM79 °FPassing clouds.5 mph48%30.24 "HgN/A
2:50 PM77 °FPassing clouds.3 mph54%30.24 "HgN/A
2:20 PM75 °FScattered clouds.6 mph54%30.24 "HgN/A
1:50 PM75 °FPassing clouds.3 mph57%30.27 "HgN/A
1:20 PM75 °FSunny.3 mph57%30.27 "Hg10 mi
12:50 PM73 °FSunny.3 mph61%30.24 "Hg10 mi
12:20 PM72 °FPassing clouds.5 mph65%30.24 "HgN/A
11:50 AM72 °FPassing clouds.5 mph61%30.24 "HgN/A
11:20 AM70 °FScattered clouds.5 mph69%30.27 "HgN/A
10:50 AM66 °FBroken clouds.3 mph73%30.27 "HgN/A
10:20 AM64 °FBroken clouds.3 mph78%30.27 "HgN/A
9:50 AM63 °FPartly sunny.2 mph83%30.27 "HgN/A
9:20 AM61 °FPartly sunny.3 mph83%30.24 "HgN/A
8:50 AM61 °FPartly sunny.3 mph83%30.24 "HgN/A
8:20 AM61 °FPartly sunny.5 mph83%30.24 "HgN/A
7:50 AM61 °FPartly sunny.6 mph83%30.24 "HgN/A
7:20 AM61 °FPartly sunny.5 mph83%30.24 "HgN/A
6:50 AM59 °FPartly sunny.5 mph88%30.21 "HgN/A
6:20 AM59 °FOvercast.5 mph88%30.21 "HgN/A
5:50 AM59 °FOvercast.5 mph88%30.21 "HgN/A
5:20 AM59 °FOvercast.3 mph88%30.21 "HgN/A
4:50 AM59 °FOvercast.3 mph94%30.21 "HgN/A
4:20 AM59 °FOvercast.3 mph94%30.21 "HgN/A
Weather by CustomWeather, © 2014

See weather overviewHow to use our weather pages